FW3057 Weather Reports


Display with metric or nautical units.
time (UTC)temp
F
wind
direction
speed
MPH
gust
MPH
rain 1hr
in
rain 24hr
in
rain mn
in
humidity
%
barometer
mb
20260905010312 60 291 2.0 5.0 0.00 0.00 0.00 93 1023.3
20260905004310 60 279 3.0 6.0 0.00 0.00 0.00 93 1023.3
20260905003310 60 316 3.0 5.0 0.00 0.00 0.00 93 1023.3
20260905002310 60 284 2.0 5.0 0.00 0.00 0.00 93 1023.2
20260905001310 60 264 3.0 5.0 0.00 0.00 0.00 93 1023.2
20260905000311 60 326 3.0 5.0 0.00 0.00 0.00 93 1023.0
20260904235310 60 297 3.0 7.0 0.00 0.00 0.00 93 1022.8
20260904234310 60 271 3.0 6.0 0.00 0.00 0.00 93 1022.7
20260904233310 60 269 3.0 5.0 0.00 0.00 0.00 93 1022.7
20260904230311 61 276 2.0 4.0 0.00 0.00 0.00 92 1022.8
20260904222311 61 304 2.0 6.0 0.00 0.00 0.00 91 1022.9
20260904220310 62 276 3.0 6.0 0.00 0.00 0.00 91 1022.8
20260904215310 62 291 3.0 6.0 0.00 0.02 0.02 90 1022.7
20260904214310 62 285 4.0 6.0 0.00 0.02 0.02 90 1022.7
20260904213310 62 281 2.0 5.0 0.00 0.02 0.02 89 1022.6
20260904211310 62 300 2.0 4.0 0.00 0.02 0.02 89 1023.0
20260904210310 62 288 2.0 5.0 0.00 0.02 0.02 89 1022.7
20260904205310 63 338 2.0 4.0 0.00 0.02 0.02 88 1022.8
20260904204310 63 302 2.0 5.0 0.00 0.02 0.02 88 1022.9
20260904203310 63 284 3.0 4.0 0.00 0.02 0.02 88 1022.5
20260904202310 63 300 1.0 3.0 0.00 0.02 0.02 87 1022.5
20260904201310 63 300 2.0 5.0 0.00 0.02 0.02 87 1022.3
20260904195310 64 283 2.0 5.0 0.00 0.02 0.02 86 1022.1
20260904194310 64 293 3.0 7.0 0.00 0.02 0.02 86 1022.2
20260904193310 64 290 2.0 4.0 0.00 0.02 0.02 85 1021.8
20260904192310 65 306 2.0 3.0 0.00 0.02 0.02 85 1021.5
20260904190310 65 303 3.0 6.0 0.00 0.02 0.02 85 1021.1
20260904184310 66 295 1.0 4.0 0.00 0.02 0.02 85 1021.1
20260904183310 66 335 3.0 4.0 0.00 0.02 0.02 85 1021.0
20260904181310 67 304 3.0 5.0 0.00 0.02 0.02 84 1020.8
20260904180311 67 20 3.0 6.0 0.00 0.02 0.02 84 1021.1
20260904174310 67 314 3.0 10.0 0.00 0.02 0.02 84 1020.6
20260904173310 67 302 5.0 12.0 0.00 0.02 0.02 85 1020.7
20260904172310 67 321 7.0 11.0 0.00 0.02 0.02 86 1020.6
20260904171310 67 20 4.0 8.0 0.00 0.02 0.02 88 1020.6
20260904170309 68 323 3.0 7.0 0.00 0.02 0.02 89 1020.4
20260904165310 68 354 5.0 9.0 0.00 0.02 0.02 89 1020.3
20260904164310 68 32 6.0 9.0 0.00 0.02 0.02 89 1020.4
20260904163310 68 327 5.0 12.0 0.00 0.02 0.02 90 1020.4
20260904162309 68 293 8.0 12.0 0.00 0.02 0.02 89 1020.5
20260904154309 68 348 6.0 11.0 0.00 0.02 0.02 92 1020.1
20260904153309 69 331 5.0 10.0 0.00 0.02 0.02 92 1019.9
20260904152309 69 79 4.0 10.0 0.00 0.02 0.02 92 1019.9
20260904151309 69 25 6.0 12.0 0.00 0.02 0.02 92 1019.9
20260904150309 69 348 3.0 9.0 0.01 0.02 0.02 92 1019.8
20260904144309 69 314 7.0 12.0 0.02 0.02 0.02 92 1019.8
20260904143309 69 300 5.0 12.0 0.02 0.02 0.02 92 1019.6
20260904142309 69 272 5.0 15.0 0.02 0.02 0.02 90 1019.7
20260904141309 71 334 4.0 9.0 0.02 0.02 0.02 90 1019.7
20260904140309 72 317 10.0 13.0 0.02 0.02 0.02 87 1019.6
20260904135309 74 342 7.0 15.0 0.00 0.00 0.00 85 1019.4
20260904134309 74 296 4.0 10.0 0.00 0.00 0.00 84 1019.1
20260904133309 75 296 8.0 14.0 0.00 0.00 0.00 80 1018.9
20260904131309 76 274 10.0 14.0 0.00 0.00 0.00 77 1018.6
20260904130310 76 276 10.0 17.0 0.00 0.00 0.00 76 1018.5
20260904125309 76 213 7.0 15.0 0.00 0.00 0.00 76 1018.5
20260904124309 76 290 6.0 11.0 0.00 0.00 0.00 76 1018.4
20260904123309 76 274 7.0 11.0 0.00 0.00 0.00 76 1018.4
20260904122309 76 264 6.0 10.0 0.00 0.00 0.00 75 1018.4
20260904121309 76 269 7.0 11.0 0.00 0.00 0.00 75 1018.4
20260904120310 76 217 7.0 16.0 0.00 0.00 0.00 76 1018.4
20260904114309 76 274 8.0 16.0 0.00 0.00 0.00 75 1018.4
20260904112309 77 269 8.0 15.0 0.00 0.00 0.00 73 1018.4
20260904105309 76 285 10.0 13.0 0.00 0.00 0.00 76 1018.4
20260904104309 75 297 7.0 12.0 0.00 0.00 0.00 77 1018.3
20260904103310 74 271 8.0 16.0 0.00 0.00 0.00 78 1018.3
20260904102309 74 272 12.0 18.0 0.00 0.00 0.00 80 1018.4
20260904101309 73 264 11.0 18.0 0.00 0.00 0.00 81 1018.4
20260904100309 72 300 7.0 17.0 0.00 0.00 0.00 84 1018.6
20260904095309 71 250 8.0 14.0 0.00 0.00 0.00 86 1018.6
20260904094309 71 269 8.0 15.0 0.00 0.00 0.00 87 1018.6
20260904092309 70 245 5.0 15.0 0.00 0.00 0.00 89 1018.6
20260904091309 70 178 7.0 11.0 0.00 0.00 0.00 89 1018.6
20260904090310 69 261 6.0 14.0 0.00 0.00 0.00 89 1018.6
20260904085310 69 213 5.0 11.0 0.00 0.00 0.00 89 1018.5
20260904083310 69 231 6.0 10.0 0.00 0.00 0.00 90 1018.3
20260904082311 69 269 7.0 14.0 0.00 0.00 0.00 91 1018.4
20260904081311 68 276 5.0 10.0 0.00 0.00 0.00 91 1018.3
20260904080310 68 220 6.0 10.0 0.00 0.00 0.00 92 1018.2
20260904075310 68 269 5.0 12.0 0.00 0.00 0.00 92 1018.1
20260904074310 68 257 7.0 11.0 0.00 0.00 0.00 92 1018.4
20260904073310 67 233 8.0 15.0 0.00 0.00 0.00 91 1018.3
20260904072310 67 298 5.0 10.0 0.00 0.00 0.00 92 1018.0
20260904071310 67 221 6.0 10.0 0.00 0.00 0.00 92 1018.0
20260904065310 66 240 6.0 11.0 0.00 0.00 0.00 93 1017.8
20260904064310 66 216 6.0 12.0 0.00 0.00 0.00 93 1017.8
20260904062309 66 243 6.0 13.0 0.00 0.00 0.00 93 1017.7
20260904055309 66 227 6.0 10.0 0.00 0.00 0.00 93 1017.6
20260904054309 66 46 5.0 9.0 0.00 0.00 0.00 93 1017.6
20260904052309 66 219 5.0 10.0 0.00 0.00 0.00 93 1017.9
20260904051309 66 240 7.0 13.0 0.00 0.00 0.00 93 1018.0
20260904045309 67 302 3.0 8.0 0.00 0.00 0.00 93 1018.2
20260904044309 67 238 6.0 11.0 0.00 0.00 0.00 94 1018.3
20260904042312 67 216 3.0 9.0 0.00 0.00 0.00 94 1018.6
20260904041311 67 232 3.0 7.0 0.00 0.00 0.00 94 1018.5
20260904040311 67 264 4.0 8.0 0.00 0.00 0.00 94 1018.6
20260904035312 67 218 4.0 9.0 0.00 0.00 0.00 94 1018.6
20260904033312 67 229 5.0 11.0 0.00 0.00 0.00 93 1018.6
20260904032312 67 236 5.0 9.0 0.00 0.00 0.00 93 1018.6
20260904031312 67 227 5.0 10.0 0.00 0.00 0.00 93 1018.7
20260904030312 67 197 7.0 10.0 0.00 0.00 0.00 93 1018.8
20260904024311 67 202 4.0 8.0 0.00 0.00 0.00 93 1018.8
20260904023311 67 227 2.0 6.0 0.00 0.00 0.00 93 1018.9
20260904022311 67 245 3.0 6.0 0.00 0.00 0.00 93 1019.0
20260904020311 67 209 3.0 9.0 0.00 0.00 0.00 93 1019.1
20260904015311 67 269 4.0 9.0 0.00 0.00 0.00 93 1019.1
20260904012311 67 255 5.0 13.0 0.00 0.00 0.00 93 1019.3
20260904011311 67 220 7.0 12.0 0.00 0.00 0.00 93 1019.3